Location: Angwan Shehu
(11.2514°N, 7.4613°E)
Time: 04:36:38
(UTC+00:00)

CSL-04 Debris - Pass Details

Date: 14 November 2019
Orbit: 827 x 849 km, 99.0° (Epoch: 08 December)

Event Time Altitude Azimuth Distance (km) Brightness Sun altitude
Rises 18:13:50 0° 162° (SSE) 3,394 7.3 -17.4°
Reaches altitude 10° 18:16:12 10° 160° (SSE) 2,462 6.6 -18.0°
Maximum altitude 18:21:38 71° 77° (ENE) 895 4.1 -19.3°
Drops below altitude 10° 18:27:05 10° 354° (N) 2,467 6.5 -20.5°
Sets 18:29:28 0° 352° (N) 3,402 7.3 -21.1°
